Probability
19 13 19 16 13 13 10 10 6 10 6 6 6 3 3 0 0 0 0 0 0 0 0 0 0 0 0 0 0 0 0 0 0 0 0 0 0 0 0 0 3 6 6
13 13 13 16 10 10 10 10 6 6 3 6 3 0 0 0 0 0 0 0 0 0 0 0 0 0 0 0 0 0 0 0 0 0 0 0 0 0 0 0 0 0 3
13 13 13 13 13 10 13 13 6 0 3 3 3 0 0 0 0 0 0 0 0 0 0 0 0 0 0 0 0 0 0 0 0 0 0 0 0 0 0 0 0 0 0
6 3 10 13 13 13 13 10 6 0 3 3 0 0 0 0 0 0 0 0 0 0 0 0 0 0 0 0 0 0 0 0 0 0 0 0 0 0 0 0 0 0 0
0 3 10 6 13 13 10 10 6 0 0 0 0 0 0 0 0 0 0 0 0 0 0 0 0 0 0 0 0 0 0 0 0 0 0 0 0 0 0 0 0 0 0
0 0 0 3 6 6 6 3 0 0 0 0 0 0 0 0 0 0 0 0 0 0 0 0 0 0 0 0 0 0 0 0 0 0 0 0 0 0 0 0 0 0 0
3 3 3 6 3 3 6 3 0 0 0 0 0 0 0 0 0 0 0 0 0 0 0 0 0 0 0 0 0 0 0 0 0 0 0 0 0 0 0 0 0 0 0
3 3 3 6 3 6 6 3 3 3 0 3 0 0 0 0 0 0 0 0 0 0 0 0 0 0 0 0 0 0 0 0 0 0 0 0 0 0 0 0 0 0 0
0 6 6 6 3 6 6 3 3 0 3 3 3 0 0 0 0 0 0 0 0 0 0 0 0 0 0 0 0 0 0 0 0 0 0 0 0 0 0 0 0 0 0
0 3 6 6 3 6 6 3 3 0 3 3 3 3 0 0 0 0 0 0 0 0 0 0 0 0 0 0 0 0 0 0 0 0 0 0 0 0 0 0 0 0 0
0 3 6 6 0 6 6 3 3 0 3 3 3 3 0 0 0 0 0 0 0 0 0 0 0 0 0 0 0 0 0 0 0 0 0 0 0 0 0 0 0 0 0
0 3 6 10 3 3 3 6 3 3 3 3 3 3 0 0 0 0 0 0 0 0 0 0 0 0 0 0 0 0 0 0 0 0 0 0 0 0 0 0 0 0 0
0 0 3 6 6 0 3 3 3 3 3 3 6 0 0 0 0 0 0 0 0 0 0 0 0 0 0 0 0 0 0 0 0 0 0 0 0 0 0 0 0 0 0
0 0 0 0 6 3 3 3 3 0 3 6 3 3 3 3 0 0 0 0 0 0 0 0 0 0 0 0 0 0 0 0 0 0 0 0 0 0 0 0 0 0 0
3 0 0 0 3 3 3 3 3 10 6 6 3 3 3 3 3 3 3 0 0 0 0 0 0 0 0 0 0 0 0 0 0 0 0 0 0 0 0 0 0 0 0
6 0 0 3 3 3 6 6 6 10 6 6 3 3 3 3 3 3 3 0 0 0 0 0 0 0 0 0 0 0 0 0 0 0 0 0 0 0 0 0 0 0 0
3 3 0 0 0 0 3 3 6 3 6 3 3 3 0 0 0 0 0 0 0 0 0 0 0 0 0 0 0 0 0 0 0 0 0 0 0 0 0 0 0 0 0
0 3 0 0 0 0 0 3 3 3 0 0 0 0 0 0 0 0 0 0 0 0 0 0 0 0 0 0 0 0 0 0 0 0 0 0 0 0 0 0 0 0 0
0 0 0 0 0 0 0 0 3 3 0 0 0 0 0 0 0 0 0 0 0 0 0 0 0 0 0 0 0 0 0 0 0 0 0 0 0 0 0 0 0 0 0
0 0 0 0 0 0 0 0 0 0 0 0 0 0 0 0 0 0 0 0 0 0 0 0 0 0 0 0 0 0 0 0 0 0 0 0 0 0 0 0 0 0 0
0 0 0 0 0 0 0 0 0 0 0 0 0 0 0 0 0 0 0 0 0 0 0 0 0 0 0 0 0 0 0 0 0 0 0 0 0 0 0 0 0 0 0
0 0 0 0 0 0 0 0 0 0 0 0 0 0 0 0 0 0 0 0 0 0 0 0 0 0 0 0 0 0 0 0 0 0 0 0 0 0 0 0 0 0 0
0 0 0 0 0 0 0 0 0 0 0 0 0 0 0 0 0 0 0 0 0 0 0 0 0 0 0 0 0 0 0 0 0 0 0 0 0 0 0 0 0 0 0
0 0 0 0 0 0 0 0 0 0 0 0 0 0 0 0 0 0 0 0 0 0 0 0 0 0 0 0 0 0 0 0 0 0 0 0 0 0 0 0 0 0 0
0 0 0 0 0 0 0 0 0 0 0 0 0 0 0 0 0 0 0 0 0 0 0 0 0 0 0 0 0 0 0 0 0 0 0 0 0 0 0 0 0 0 0
0 0 0 0 0 0 0 0 0 0 0 0 0 0 0 0 0 0 0 0 0 0 0 0 0 0 0 0 0 0 0 0 0 0 0 0 0 0 0 0 0 0 0
Height
5826 5823 5821 5821 5821 5821 5823 5825 5829 5834 5837 5841 5845 5849 5853 5857 5860 5863 5865 5867 5868 5869 5870 5871 5872 5873 5874 5874 5875 5875 5876 5876 5877 5878 5878 5878 5878 5878 5878 5879 5879 5879 5879
5825 5822 5820 5819 5817 5819 5821 5823 5826 5831 5835 5839 5843 5847 5851 5855 5858 5860 5863 5865 5866 5868 5869 5870 5871 5872 5873 5874 5874 5875 5876 5876 5877 5878 5878 5878 5879 5878 5878 5879 5879 5879 5879
5825 5822 5819 5818 5817 5818 5819 5821 5825 5829 5833 5837 5841 5845 5849 5853 5856 5859 5861 5863 5865 5867 5868 5869 5871 5872 5873 5873 5874 5875 5876 5876 5877 5877 5878 5878 5878 5878 5879 5879 5879 5879 5879
5824 5822 5819 5818 5818 5818 5819 5820 5823 5827 5831 5835 5839 5843 5847 5850 5854 5856 5859 5861 5863 5865 5867 5868 5869 5871 5872 5873 5874 5874 5875 5876 5876 5877 5877 5878 5878 5878 5879 5879 5879 5879 5879
5824 5822 5819 5818 5818 5818 5818 5820 5822 5824 5829 5832 5836 5841 5845 5848 5851 5854 5857 5859 5861 5863 5865 5866 5868 5870 5871 5872 5873 5874 5874 5875 5876 5876 5877 5877 5877 5878 5878 5878 5878 5878 5878
5824 5822 5820 5818 5817 5818 5818 5819 5821 5824 5827 5831 5834 5839 5843 5846 5849 5852 5855 5857 5859 5861 5863 5865 5867 5868 5869 5871 5872 5872 5873 5874 5875 5875 5876 5876 5876 5877 5877 5877 5877 5877 5877
5824 5822 5820 5819 5818 5818 5818 5819 5821 5823 5826 5829 5833 5837 5841 5844 5847 5850 5853 5855 5858 5859 5861 5863 5865 5867 5868 5869 5870 5871 5872 5873 5873 5874 5874 5874 5875 5875 5875 5875 5875 5875 5875
5824 5822 5821 5819 5819 5818 5818 5819 5821 5823 5826 5828 5832 5836 5839 5842 5845 5848 5851 5853 5855 5857 5859 5861 5863 5864 5866 5867 5868 5869 5870 5870 5871 5872 5872 5872 5873 5873 5873 5873 5873 5873 5873
5825 5823 5821 5820 5820 5819 5819 5819 5820 5823 5825 5828 5831 5834 5838 5841 5843 5846 5848 5851 5853 5855 5857 5858 5860 5862 5863 5864 5865 5866 5867 5867 5868 5869 5869 5869 5870 5870 5870 5870 5870 5870 5869
5825 5823 5822 5821 5821 5820 5819 5819 5821 5823 5825 5828 5830 5833 5836 5839 5841 5844 5846 5848 5850 5852 5854 5855 5857 5858 5860 5861 5862 5862 5863 5864 5864 5865 5865 5865 5865 5866 5865 5865 5865 5865 5865
5825 5824 5822 5822 5821 5821 5820 5820 5821 5823 5825 5827 5829 5832 5834 5837 5839 5841 5843 5845 5847 5849 5850 5852 5853 5854 5855 5856 5857 5858 5859 5859 5859 5860 5860 5860 5860 5860 5860 5860 5860 5859 5859
5825 5823 5822 5822 5822 5822 5822 5822 5822 5823 5825 5827 5829 5831 5833 5835 5837 5839 5840 5842 5844 5845 5846 5848 5849 5850 5851 5851 5852 5852 5853 5853 5854 5854 5854 5854 5854 5854 5853 5853 5853 5852 5852
5824 5823 5822 5821 5821 5821 5822 5822 5822 5823 5824 5826 5827 5829 5831 5832 5834 5836 5837 5838 5840 5841 5842 5843 5844 5845 5845 5846 5846 5846 5847 5847 5847 5847 5847 5846 5846 5846 5846 5845 5845 5844 5843
5823 5822 5821 5821 5821 5821 5821 5821 5821 5822 5823 5824 5826 5827 5828 5830 5831 5832 5833 5835 5836 5836 5837 5837 5838 5838 5839 5839 5840 5840 5840 5839 5839 5839 5838 5838 5837 5837 5837 5836 5835 5834 5834
5820 5820 5819 5819 5819 5819 5819 5820 5820 5820 5821 5822 5823 5824 5825 5826 5827 5828 5829 5830 5831 5831 5831 5831 5831 5831 5832 5832 5832 5832 5831 5831 5830 5830 5829 5828 5828 5827 5826 5825 5824 5823 5822
5818 5817 5817 5817 5817 5817 5817 5817 5818 5818 5818 5819 5820 5821 5822 5822 5823 5824 5824 5825 5825 5825 5825 5825 5825 5825 5824 5824 5824 5823 5822 5822 5821 5820 5819 5818 5817 5816 5815 5814 5813 5811 5810
5814 5814 5814 5814 5814 5814 5814 5814 5814 5815 5815 5816 5816 5816 5817 5818 5818 5819 5820 5820 5819 5819 5819 5818 5818 5817 5817 5816 5815 5814 5814 5813 5811 5810 5809 5807 5806 5805 5803 5802 5800 5799 5797
5810 5810 5810 5810 5810 5810 5810 5811 5811 5811 5811 5811 5812 5812 5813 5814 5814 5814 5814 5813 5813 5812 5811 5811 5810 5809 5808 5807 5806 5805 5804 5802 5801 5799 5797 5796 5794 5792 5791 5789 5787 5786 5784
5805 5805 5805 5805 5805 5805 5806 5806 5806 5806 5806 5807 5807 5808 5808 5808 5808 5808 5807 5807 5806 5805 5804 5803 5801 5800 5799 5797 5796 5794 5793 5791 5789 5787 5786 5784 5782 5780 5778 5776 5774 5772 5770
5799 5799 5799 5800 5800 5800 5801 5801 5801 5801 5802 5802 5802 5802 5802 5802 5802 5801 5800 5799 5798 5796 5795 5794 5792 5790 5789 5787 5785 5783 5781 5779 5777 5774 5772 5770 5768 5766 5764 5762 5760 5758 5756
5792 5792 5793 5793 5794 5795 5795 5796 5795 5795 5796 5797 5797 5796 5796 5795 5795 5794 5792 5791 5789 5788 5786 5784 5782 5780 5778 5776 5774 5771 5769 5767 5764 5761 5759 5756 5754 5752 5749 5747 5745 5743 5741
5784 5785 5785 5786 5787 5788 5789 5790 5790 5790 5790 5790 5790 5789 5789 5788 5787 5785 5784 5782 5780 5778 5776 5774 5771 5769 5767 5764 5762 5759 5757 5754 5751 5748 5745 5742 5740 5737 5734 5731 5729 5726 5724
5776 5777 5778 5779 5780 5781 5782 5783 5783 5783 5782 5782 5782 5782 5781 5779 5778 5776 5774 5772 5770 5768 5765 5763 5760 5757 5755 5752 5749 5747 5744 5740 5737 5734 5731 5728 5724 5721 5718 5715 5712 5709 5706
5768 5770 5771 5772 5773 5774 5775 5776 5776 5776 5775 5775 5774 5773 5771 5770 5768 5766 5764 5762 5759 5757 5754 5751 5748 5745 5742 5739 5736 5732 5729 5726 5722 5718 5715 5711 5708 5704 5700 5697 5693 5689 5686
5761 5763 5764 5765 5767 5767 5768 5768 5769 5769 5768 5767 5766 5764 5762 5760 5758 5755 5753 5751 5748 5745 5742 5739 5736 5732 5729 5725 5721 5717 5714 5710 5706 5702 5698 5694 5690 5686 5681 5677 5673 5669 5666
5753 5755 5757 5759 5760 5761 5761 5761 5761 5760 5760 5758 5757 5755 5752 5750 5748 5745 5742 5739 5736 5733 5729 5726 5722 5718 5714 5710 5706 5702 5697 5693 5689 5684 5680 5675 5671 5667 5663 5659 5654 5650 5645
Wind_Speed
15 12 11 10 11 11 14 18 19 18 20 22 21 21 21 19 17 15 13 12 10 9 8 7 5 4 3 2 2 2 2 2 2 2 2 2 2 2 2 2 2 2 2
15 12 10 9 9 10 12 16 19 19 19 21 22 22 21 20 18 16 14 13 12 10 8 7 6 5 4 3 2 2 2 2 2 2 2 2 2 2 2 2 2 2 2
14 11 8 6 5 7 10 14 18 20 21 22 22 22 21 19 18 16 15 13 12 11 9 8 7 6 5 4 3 3 2 2 2 1 1 1 2 2 2 2 2 2 2
13 11 8 5 4 7 10 13 17 20 21 21 22 22 21 19 18 17 15 14 12 11 10 9 9 8 7 6 5 4 3 3 2 2 2 2 2 2 2 2 2 2 2
12 10 8 5 4 6 10 12 16 19 20 21 21 22 21 19 18 17 15 14 13 12 11 11 10 9 8 8 7 6 5 4 3 3 2 2 3 3 3 3 3 3 3
10 10 8 4 3 4 8 12 14 16 19 21 22 21 20 20 18 17 15 15 14 13 12 12 12 11 10 9 8 8 7 6 6 5 5 5 5 5 5 5 5 5 6
9 8 7 4 1 3 7 11 14 16 19 21 21 21 20 19 18 17 15 15 15 14 13 13 13 12 12 11 10 10 9 9 9 8 8 7 7 7 7 8 8 8 9
7 6 5 3 1 2 6 9 13 16 17 18 20 20 20 18 18 17 16 16 15 15 15 14 14 14 13 13 13 12 12 12 12 11 11 11 11 11 11 11 11 12 12
6 5 3 3 1 1 3 7 11 13 15 16 17 18 18 18 18 17 16 16 16 15 15 15 16 15 15 15 15 15 14 15 15 15 15 15 15 15 15 15 15 16 16
6 5 3 2 1 1 1 5 9 12 13 14 15 15 17 17 17 16 16 16 16 16 15 16 17 17 17 18 18 18 18 18 18 19 19 19 19 19 19 19 19 20 20
7 6 4 2 1 0 1 4 7 9 11 12 13 14 14 15 15 15 15 16 16 16 16 17 18 18 19 20 20 20 21 21 22 22 22 22 22 23 23 23 23 23 23
8 6 5 3 2 2 1 2 5 7 9 10 10 12 13 14 15 15 16 17 17 17 18 19 20 21 21 22 23 23 24 24 25 25 26 26 26 27 27 27 27 27 27
9 7 5 4 4 3 3 3 4 6 8 9 10 11 12 13 15 16 17 17 18 19 20 21 22 23 24 25 25 26 27 27 28 29 29 30 30 31 31 31 31 31 32
10 9 7 5 6 5 5 5 5 6 7 9 10 11 12 13 15 16 17 18 19 20 22 23 24 25 25 27 28 29 30 31 31 32 33 33 34 34 35 35 35 36 36
12 10 9 8 7 7 7 8 8 8 8 9 10 11 12 13 15 17 18 19 20 22 24 25 26 27 27 29 31 32 33 34 35 35 36 37 37 38 39 39 40 40 40
13 12 12 11 10 10 10 10 11 11 12 12 12 13 14 15 15 17 18 20 22 23 25 26 27 28 29 30 32 34 35 35 36 37 38 39 40 41 42 43 43 44 44
15 14 15 14 13 13 13 12 13 14 14 14 15 16 15 16 17 18 19 22 23 25 26 27 28 29 30 32 33 35 36 37 38 40 41 42 44 44 45 46 46 47 47
17 16 17 16 16 16 15 15 15 16 16 17 18 18 18 19 19 20 21 23 25 26 27 29 30 31 33 34 36 37 38 39 40 41 43 44 45 46 46 47 49 50 50
20 19 19 19 18 18 18 18 18 17 17 17 18 19 20 21 21 22 23 24 25 27 29 30 32 33 35 36 37 39 40 42 43 44 45 46 47 47 48 50 51 51 52
23 20 21 21 21 20 20 20 20 19 19 19 20 20 20 21 22 24 26 27 28 30 31 32 34 36 37 38 39 41 43 44 45 46 47 48 48 49 50 51 52 53 54
25 23 22 21 22 22 22 21 20 20 21 22 22 22 23 24 26 27 29 30 31 32 33 34 35 37 39 40 42 43 44 46 47 47 48 49 50 52 52 53 53 54 55
27 25 24 22 22 23 23 23 22 22 23 24 24 25 26 28 29 29 31 32 33 34 35 36 37 38 39 41 43 44 45 46 47 49 49 50 51 52 53 54 55 57 58
27 26 25 24 24 23 23 24 24 24 25 25 26 27 28 30 31 32 33 34 35 36 37 38 39 40 41 43 44 46 47 48 49 51 52 52 53 55 56 57 59 60 61
26 25 24 25 24 24 24 25 26 25 26 27 29 30 31 32 33 35 35 37 38 38 39 40 41 42 43 45 46 48 49 51 52 54 55 56 56 58 59 61 62 63 64
25 24 24 24 24 25 25 25 26 27 28 29 30 31 32 33 34 36 36 37 38 39 40 42 43 45 46 48 50 51 52 53 55 56 57 58 59 60 62 63 64 64 65
24 23 22 23 23 23 24 25 26 27 29 29 31 32 34 35 36 37 38 39 41 42 44 45 47 48 50 51 53 54 55 56 57 58 58 59 60 61 61 62 62 63 64
Wind_Direction
321 314 305 287 266 243 219 211 208 208 209 207 207 208 207 208 210 213 220 225 230 233 233 235 234 234 233 229 207 190 184 172 161 154 156 158 160 175 179 182 198 214 225
324 318 309 285 268 235 218 213 206 203 202 202 202 203 204 205 210 214 217 223 227 228 227 228 225 220 218 209 194 175 160 150 145 144 152 163 164 176 185 186 197 210 222
327 322 315 293 250 223 211 207 202 200 198 198 199 200 202 206 211 214 218 221 224 225 224 222 218 214 210 205 204 193 178 170 167 169 169 173 172 171 179 192 208 221 233
330 324 318 289 245 221 203 204 203 200 197 198 200 199 203 208 210 215 219 221 225 224 223 221 217 214 212 211 213 211 206 205 208 207 208 214 212 207 210 228 240 246 253
337 333 322 296 255 218 206 203 200 198 198 198 200 201 204 208 211 217 220 221 222 222 222 222 220 220 219 220 222 224 227 229 230 231 236 240 239 240 244 251 261 265 267
338 337 324 306 260 215 202 198 196 198 199 200 201 202 206 208 211 215 217 219 222 221 222 223 225 226 227 229 228 231 237 240 242 246 253 257 257 257 259 263 269 273 275
334 336 332 313 269 206 194 192 194 198 199 199 201 204 206 208 211 215 218 221 223 224 226 228 231 233 234 235 238 240 245 249 253 256 262 266 266 266 267 270 274 276 277
335 341 348 338 318 202 190 190 194 197 199 200 202 204 207 209 213 217 222 225 227 229 231 234 236 238 241 244 246 249 252 255 257 260 263 267 270 271 272 274 276 278 278
330 333 345 353 26 82 181 193 194 192 196 200 203 206 209 213 218 221 225 228 230 232 235 238 240 243 246 250 252 254 256 259 261 263 265 267 270 271 272 274 276 277 278
328 326 334 348 348 25 113 185 190 197 200 204 208 209 213 217 220 224 227 231 234 236 239 243 245 248 251 253 255 257 259 261 263 265 267 268 270 272 273 273 274 276 277
328 320 314 306 312 92 104 172 186 198 204 208 213 214 217 222 223 225 230 233 237 240 243 246 249 253 256 258 260 261 262 264 265 267 268 269 270 271 272 272 272 273 275
320 315 307 286 257 226 209 193 203 208 208 209 215 218 220 224 227 231 235 239 244 247 249 252 254 257 259 261 262 263 264 265 267 268 269 270 271 271 272 272 272 272 272
315 307 299 278 259 253 244 235 228 217 217 220 223 225 229 235 239 242 243 246 249 252 256 258 260 262 264 265 266 266 267 268 269 270 271 272 273 273 273 273 273 272 272
304 293 286 276 264 263 261 254 246 239 238 237 236 239 241 242 246 248 251 254 255 258 261 263 263 265 267 268 268 268 269 269 270 271 272 272 273 273 274 274 274 273 272
294 282 277 271 264 264 264 264 256 252 249 251 252 250 249 251 251 252 255 258 260 263 264 265 266 266 267 269 269 269 270 270 270 271 273 273 273 274 274 274 274 274 273
290 277 271 268 262 263 263 263 261 257 256 258 259 260 257 257 258 257 259 261 264 267 268 268 269 271 271 271 272 271 272 272 272 273 275 275 274 274 274 275 275 275 275
283 275 269 264 262 263 262 263 262 262 261 261 265 262 263 266 267 264 265 267 269 271 271 269 271 273 273 272 272 273 273 274 274 274 274 273 274 274 275 274 275 275 275
278 274 265 260 259 260 263 263 262 262 261 262 265 267 266 270 270 271 272 274 272 273 273 272 273 273 272 273 273 273 273 274 275 274 275 276 276 275 274 274 275 275 276
273 270 263 258 258 259 260 260 260 261 265 267 269 269 269 271 273 275 277 278 280 278 277 276 275 276 275 275 274 273 274 275 275 275 276 276 276 276 275 275 275 275 276
267 268 265 259 256 257 258 259 261 262 266 269 272 273 274 275 276 278 279 279 280 280 279 278 277 276 276 276 276 275 275 275 276 276 276 276 275 275 275 276 275 276 276
263 265 264 259 256 256 257 259 261 262 265 269 273 274 275 276 278 279 280 281 281 280 280 280 279 278 278 278 278 278 278 278 278 278 277 276 276 276 276 276 276 277 277
259 258 259 257 256 256 257 258 261 264 267 270 272 275 277 278 279 281 282 283 282 282 282 282 281 281 280 280 280 280 281 281 280 279 278 278 278 278 278 277 277 277 277
255 255 256 256 256 256 257 260 264 267 269 272 275 277 279 281 281 282 284 285 285 285 285 285 284 283 282 282 283 282 282 281 281 281 280 280 280 280 280 279 279 279 278
252 251 254 256 256 257 259 262 265 269 272 275 278 280 282 283 284 286 287 288 288 287 287 286 285 284 284 283 284 283 283 282 282 281 280 281 281 281 281 281 280 280 279
248 251 252 253 256 257 260 264 268 272 275 278 280 282 284 285 287 288 289 289 288 288 288 288 288 287 286 285 285 284 284 284 284 283 283 283 283 283 283 283 282 282 282
247 247 248 253 256 259 264 268 271 275 278 280 283 285 287 289 290 290 290 290 290 290 290 290 289 288 287 287 286 286 286 285 285 285 285 285 285 285 285 285 284 284 284